Time,TemperatureF,DewpointF,PressureIn,WindDirection,WindDirectionDegrees,WindSpeedMPH,WindSpeedGustMPH,Humidity,HourlyPrecipIn,Conditions,Clouds,dailyrainin,SoftwareType,DateUTC
2013-02-08 00:01:00,43.0,39.0,29.95,NW,320,13.0,21.0,86,-99.99,,,-99.99,,2013-02-08 00:01:00,
2013-02-08 00:11:00,43.0,39.0,29.95,NW,320,13.0,21.0,86,-99.99,,,-99.99,,2013-02-08 00:11:00,
2013-02-08 00:21:00,41.0,39.0,29.96,NW,320,16.0,24.0,93,-99.99,,,-99.99,,2013-02-08 00:21:00,
2013-02-08 00:31:00,41.0,39.0,29.96,NW,320,16.0,24.0,93,-99.99,,,-99.99,,2013-02-08 00:31:00,
2013-02-08 00:41:00,41.0,39.0,29.96,NW,320,16.0,24.0,93,-99.99,,,-99.99,,2013-02-08 00:41:00,
2013-02-08 00:52:00,39.0,37.0,29.98,NW,310,18.0,28.0,93,-99.99,,,-99.99,,2013-02-08 00:52:00,
2013-02-08 01:01:00,39.0,37.0,29.99,NW,320,17.0,25.0,93,-99.99,,,-99.99,,2013-02-08 01:01:00,
2013-02-08 01:11:00,39.0,37.0,29.99,NW,320,17.0,25.0,93,-99.99,,,-99.99,,2013-02-08 01:11:00,
2013-02-08 01:21:00,39.0,37.0,29.99,NW,320,17.0,25.0,93,-99.99,,,-99.99,,2013-02-08 01:21:00,
2013-02-08 01:31:00,37.0,36.0,30.01,NW,320,14.0,-999.0,93,-99.99,,,-99.99,,2013-02-08 01:31:00,
2013-02-08 01:41:00,37.0,36.0,30.01,NW,320,14.0,-999.0,93,-99.99,,,-99.99,,2013-02-08 01:41:00,
2013-02-08 01:52:00,37.0,36.0,30.02,NNW,330,14.0,21.0,93,-99.99,,,-99.99,,2013-02-08 01:52:00,
2013-02-08 02:01:00,37.0,36.0,30.03,NW,320,14.0,-999.0,93,-99.99,,,-99.99,,2013-02-08 02:01:00,
2013-02-08 02:11:00,37.0,36.0,30.03,NW,320,14.0,-999.0,93,-99.99,,,-99.99,,2013-02-08 02:11:00,
2013-02-08 02:21:00,37.0,36.0,30.03,NW,320,14.0,-999.0,93,-99.99,,,-99.99,,2013-02-08 02:21:00,
2013-02-08 02:31:00,37.0,34.0,30.04,NW,310,12.0,21.0,86,-99.99,,,-99.99,,2013-02-08 02:31:00,
2013-02-08 02:42:00,36.0,34.0,30.05,NW,320,15.0,18.0,93,-99.99,,,-99.99,,2013-02-08 02:42:00,
2013-02-08 02:52:00,36.0,34.0,30.05,NW,320,10.0,21.0,93,-99.99,,,-99.99,,2013-02-08 02:52:00,
2013-02-08 03:01:00,36.0,34.0,30.05,NW,320,10.0,21.0,93,-99.99,,,-99.99,,2013-02-08 03:01:00,
2013-02-08 03:12:00,36.0,34.0,30.05,NW,320,10.0,21.0,93,-99.99,,,-99.99,,2013-02-08 03:12:00,
2013-02-08 03:22:00,36.0,34.0,30.06,NNW,330,10.0,-999.0,93,-99.99,,,-99.99,,2013-02-08 03:22:00,
2013-02-08 03:32:00,36.0,34.0,30.06,NNW,330,9.0,-999.0,93,-99.99,,,-99.99,,2013-02-08 03:32:00,
2013-02-08 03:42:00,36.0,34.0,30.07,NNW,330,12.0,17.0,93,-99.99,,,-99.99,,2013-02-08 03:42:00,
2013-02-08 03:52:00,36.0,34.0,30.07,NW,320,13.0,-999.0,93,-99.99,,,-99.99,,2013-02-08 03:52:00,
2013-02-08 04:01:00,36.0,34.0,30.07,NW,320,12.0,-999.0,93,-99.99,,,-99.99,,2013-02-08 04:01:00,
2013-02-08 04:11:00,36.0,34.0,30.07,NW,320,12.0,-999.0,93,-99.99,,,-99.99,,2013-02-08 04:11:00,
2013-02-08 04:21:00,36.0,32.0,30.08,NW,320,10.0,18.0,86,-99.99,,,-99.99,,2013-02-08 04:21:00,
2013-02-08 04:32:00,36.0,32.0,30.08,NW,320,12.0,20.0,86,-99.99,,,-99.99,,2013-02-08 04:32:00,
2013-02-08 04:41:00,36.0,32.0,30.08,NNW,330,14.0,17.0,86,-99.99,,,-99.99,,2013-02-08 04:41:00,
2013-02-08 04:52:00,36.0,32.0,30.09,NNW,330,14.0,-999.0,86,-99.99,,,-99.99,,2013-02-08 04:52:00,
2013-02-08 05:02:00,36.0,32.0,30.09,NNW,330,14.0,-999.0,86,-99.99,,,-99.99,,2013-02-08 05:02:00,
2013-02-08 05:11:00,36.0,32.0,30.09,NNW,330,14.0,-999.0,86,-99.99,,,-99.99,,2013-02-08 05:11:00,
2013-02-08 05:22:00,34.0,32.0,30.09,NW,320,14.0,-999.0,93,-99.99,,,-99.99,,2013-02-08 05:22:00,
2013-02-08 05:32:00,34.0,32.0,30.09,NNW,330,12.0,-999.0,93,-99.99,,,-99.99,,2013-02-08 05:32:00,
2013-02-08 05:42:00,34.0,32.0,30.09,NNW,330,12.0,-999.0,93,-99.99,,,-99.99,,2013-02-08 05:42:00,
2013-02-08 05:52:00,34.0,32.0,30.10,NW,320,13.0,17.0,93,-99.99,,,-99.99,,2013-02-08 05:52:00,
2013-02-08 06:01:00,34.0,32.0,30.10,NW,320,13.0,17.0,93,-99.99,,,-99.99,,2013-02-08 06:01:00,
2013-02-08 06:11:00,34.0,32.0,30.10,NW,320,13.0,17.0,93,-99.99,,,-99.99,,2013-02-08 06:11:00,
2013-02-08 06:21:00,34.0,32.0,30.10,NW,320,13.0,17.0,93,-99.99,,,-99.99,,2013-02-08 06:21:00,
2013-02-08 06:31:00,34.0,32.0,30.10,NW,320,13.0,17.0,93,-99.99,,,-99.99,,2013-02-08 06:31:00,
2013-02-08 06:42:00,34.0,32.0,30.11,NNW,330,10.0,17.0,93,-99.99,,,-99.99,,2013-02-08 06:42:00,
2013-02-08 06:52:00,34.0,32.0,30.12,NNW,330,14.0,17.0,93,-99.99,,,-99.99,,2013-02-08 06:52:00,
2013-02-08 07:01:00,34.0,32.0,30.12,NNW,330,15.0,-999.0,93,-99.99,,,-99.99,,2013-02-08 07:01:00,
2013-02-08 07:11:00,34.0,32.0,30.12,NNW,330,15.0,-999.0,93,-99.99,,,-99.99,,2013-02-08 07:11:00,
2013-02-08 07:21:00,34.0,32.0,30.12,NNW,340,8.0,-999.0,93,-99.99,,,-99.99,,2013-02-08 07:21:00,
2013-02-08 07:31:00,34.0,32.0,30.12,NNW,340,8.0,-999.0,93,-99.99,,,-99.99,,2013-02-08 07:31:00,
2013-02-08 07:42:00,34.0,32.0,30.13,NNW,330,12.0,21.0,93,-99.99,,,-99.99,,2013-02-08 07:42:00,
2013-02-08 07:52:00,34.0,32.0,30.13,NW,320,12.0,20.0,93,-99.99,,,-99.99,,2013-02-08 07:52:00,
2013-02-08 08:01:00,34.0,32.0,30.13,NW,320,14.0,-999.0,93,-99.99,,,-99.99,,2013-02-08 08:01:00,
2013-02-08 08:11:00,34.0,32.0,30.13,NW,320,14.0,-999.0,93,-99.99,,,-99.99,,2013-02-08 08:11:00,
2013-02-08 08:21:00,34.0,32.0,30.14,NNW,330,13.0,18.0,93,-99.99,,,-99.99,,2013-02-08 08:21:00,
2013-02-08 08:32:00,34.0,32.0,30.15,NNW,330,13.0,-999.0,93,-99.99,,,-99.99,,2013-02-08 08:32:00,
2013-02-08 08:41:00,34.0,32.0,30.15,NNW,330,13.0,18.0,93,-99.99,,,-99.99,,2013-02-08 08:41:00,
2013-02-08 08:52:00,34.0,30.0,30.15,NNW,330,16.0,20.0,86,-99.99,,,-99.99,,2013-02-08 08:52:00,
2013-02-08 09:03:00,34.0,30.0,30.16,NNW,340,14.0,22.0,86,-99.99,,,-99.99,,2013-02-08 09:03:00,
2013-02-08 09:11:00,34.0,30.0,30.16,NNW,340,14.0,22.0,86,-99.99,,,-99.99,,2013-02-08 09:11:00,
2013-02-08 09:21:00,34.0,30.0,30.16,NNW,340,13.0,23.0,86,-99.99,,,-99.99,,2013-02-08 09:21:00,
2013-02-08 09:32:00,34.0,30.0,30.17,North,350,10.0,-999.0,86,-99.99,,,-99.99,,2013-02-08 09:32:00,
2013-02-08 09:42:00,34.0,30.0,30.17,North,350,10.0,18.0,86,-99.99,,,-99.99,,2013-02-08 09:42:00,
2013-02-08 09:52:00,34.0,30.0,30.18,NNW,330,10.0,-999.0,86,-99.99,,,-99.99,,2013-02-08 09:52:00,
2013-02-08 10:01:00,32.0,30.0,30.18,NNW,330,12.0,17.0,92,-99.99,,,-99.99,,2013-02-08 10:01:00,
2013-02-08 10:11:00,32.0,30.0,30.18,NNW,330,12.0,17.0,92,-99.99,,,-99.99,,2013-02-08 10:11:00,
2013-02-08 10:22:00,32.0,30.0,30.19,NW,320,15.0,20.0,92,-99.99,,,-99.99,,2013-02-08 10:22:00,
2013-02-08 10:31:00,32.0,30.0,30.19,NNW,330,14.0,18.0,92,-99.99,,,-99.99,,2013-02-08 10:31:00,
2013-02-08 10:41:00,32.0,30.0,30.20,NNW,330,13.0,17.0,92,-99.99,,,-99.99,,2013-02-08 10:41:00,
2013-02-08 10:52:00,32.0,30.0,30.20,NW,320,13.0,20.0,92,-99.99,,,-99.99,,2013-02-08 10:52:00,
2013-02-08 11:01:00,32.0,30.0,30.21,NNW,330,13.0,21.0,92,-99.99,,,-99.99,,2013-02-08 11:01:00,
2013-02-08 11:11:00,32.0,30.0,30.21,NNW,330,13.0,21.0,92,-99.99,,,-99.99,,2013-02-08 11:11:00,
2013-02-08 11:21:00,32.0,30.0,30.21,NNW,340,13.0,-999.0,92,-99.99,,,-99.99,,2013-02-08 11:21:00,
2013-02-08 11:32:00,32.0,30.0,30.22,NNW,340,10.0,17.0,92,-99.99,,,-99.99,,2013-02-08 11:32:00,
2013-02-08 11:41:00,32.0,28.0,30.23,NNW,340,13.0,18.0,86,-99.99,,,-99.99,,2013-02-08 11:41:00,
2013-02-08 11:52:00,32.0,28.0,30.23,NNW,340,13.0,18.0,86,-99.99,,,-99.99,,2013-02-08 11:52:00,
2013-02-08 12:02:00,32.0,28.0,30.23,NNW,340,10.0,-999.0,86,-99.99,,,-99.99,,2013-02-08 12:02:00,
2013-02-08 12:11:00,32.0,28.0,30.23,NNW,340,10.0,-999.0,86,-99.99,,,-99.99,,2013-02-08 12:11:00,
2013-02-08 12:22:00,32.0,28.0,30.24,NNW,330,14.0,18.0,86,-99.99,,,-99.99,,2013-02-08 12:22:00,
2013-02-08 12:33:00,32.0,28.0,30.25,NNW,340,10.0,-999.0,86,-99.99,,,-99.99,,2013-02-08 12:33:00,
2013-02-08 12:42:00,32.0,28.0,30.25,NNW,330,14.0,-999.0,86,-99.99,,,-99.99,,2013-02-08 12:42:00,
2013-02-08 12:52:00,32.0,28.0,30.26,NNW,340,10.0,-999.0,86,-99.99,,,-99.99,,2013-02-08 12:52:00,
2013-02-08 13:01:00,32.0,28.0,30.26,NNW,340,10.0,-999.0,86,-99.99,,,-99.99,,2013-02-08 13:01:00,
2013-02-08 13:11:00,32.0,28.0,30.26,NNW,340,10.0,-999.0,86,-99.99,,,-99.99,,2013-02-08 13:11:00,
2013-02-08 13:22:00,32.0,28.0,30.26,NNW,340,10.0,-999.0,86,-99.99,,,-99.99,,2013-02-08 13:22:00,
2013-02-08 13:32:00,32.0,28.0,30.29,NNW,340,12.0,16.0,86,-99.99,,,-99.99,,2013-02-08 13:32:00,
2013-02-08 13:43:00,32.0,28.0,30.29,NNW,330,10.0,-999.0,86,-99.99,,,-99.99,,2013-02-08 13:43:00,
2013-02-08 13:52:00,32.0,28.0,30.30,NNW,330,13.0,-999.0,86,-99.99,,,-99.99,,2013-02-08 13:52:00,
2013-02-08 14:02:00,32.0,28.0,30.30,NNW,340,10.0,-999.0,86,-99.99,,,-99.99,,2013-02-08 14:02:00,
2013-02-08 14:11:00,32.0,28.0,30.30,NNW,340,10.0,-999.0,86,-99.99,,,-99.99,,2013-02-08 14:11:00,
2013-02-08 14:21:00,32.0,27.0,30.31,NNW,340,10.0,-999.0,80,-99.99,,,-99.99,,2013-02-08 14:21:00,
2013-02-08 14:32:00,32.0,28.0,30.32,NNW,340,8.0,-999.0,86,-99.99,,,-99.99,,2013-02-08 14:32:00,
2013-02-08 14:42:00,32.0,27.0,30.32,NNW,340,8.0,-999.0,80,-99.99,,,-99.99,,2013-02-08 14:42:00,
2013-02-08 14:52:00,32.0,27.0,30.33,North,350,7.0,-999.0,80,-99.99,,,-99.99,,2013-02-08 14:52:00,
2013-02-08 15:02:00,32.0,27.0,30.33,North,10,3.0,-999.0,80,-99.99,,,-99.99,,2013-02-08 15:02:00,
2013-02-08 15:11:00,32.0,27.0,30.33,North,10,3.0,-999.0,80,-99.99,,,-99.99,,2013-02-08 15:11:00,
2013-02-08 15:21:00,32.0,27.0,30.33,North,10,7.0,-999.0,80,-99.99,,,-99.99,,2013-02-08 15:21:00,
2013-02-08 15:32:00,32.0,27.0,30.33,North,10,5.0,-999.0,80,-99.99,,,-99.99,,2013-02-08 15:32:00,
2013-02-08 15:42:00,32.0,27.0,30.33,North,360,7.0,-999.0,80,-99.99,,,-99.99,,2013-02-08 15:42:00,
2013-02-08 15:52:00,32.0,27.0,30.33,North,360,6.0,-999.0,80,-99.99,,,-99.99,,2013-02-08 15:52:00,
2013-02-08 16:01:00,32.0,27.0,30.33,North,360,6.0,-999.0,80,-99.99,,,-99.99,,2013-02-08 16:01:00,
2013-02-08 16:11:00,32.0,27.0,30.33,North,360,6.0,-999.0,80,-99.99,,,-99.99,,2013-02-08 16:11:00,
2013-02-08 16:21:00,32.0,27.0,30.33,NNW,340,9.0,-999.0,80,-99.99,,,-99.99,,2013-02-08 16:21:00,
2013-02-08 16:32:00,32.0,27.0,30.33,NNW,340,9.0,-999.0,80,-99.99,,,-99.99,,2013-02-08 16:32:00,
2013-02-08 16:42:00,32.0,27.0,30.35,North,360,5.0,-999.0,80,-99.99,,,-99.99,,2013-02-08 16:42:00,
2013-02-08 16:52:00,32.0,27.0,30.35,North,350,6.0,-999.0,80,-99.99,,,-99.99,,2013-02-08 16:52:00,
2013-02-08 17:03:00,32.0,27.0,30.35,North,350,10.0,-999.0,80,-99.99,,,-99.99,,2013-02-08 17:03:00,
2013-02-08 17:12:00,32.0,27.0,30.35,North,350,10.0,-999.0,80,-99.99,,,-99.99,,2013-02-08 17:12:00,
2013-02-08 17:22:00,32.0,27.0,30.36,North,350,7.0,-999.0,80,-99.99,,,-99.99,,2013-02-08 17:22:00,
2013-02-08 17:32:00,32.0,27.0,30.36,North,360,6.0,-999.0,80,-99.99,,,-99.99,,2013-02-08 17:32:00,
2013-02-08 17:42:00,32.0,27.0,30.36,NNW,340,7.0,-999.0,80,-99.99,,,-99.99,,2013-02-08 17:42:00,
2013-02-08 17:53:00,32.0,27.0,30.35,North,350,6.0,-999.0,80,-99.99,,,-99.99,,2013-02-08 17:53:00,
2013-02-08 18:02:00,32.0,27.0,30.35,North,10,3.0,-999.0,80,-99.99,,,-99.99,,2013-02-08 18:02:00,
2013-02-08 18:12:00,32.0,27.0,30.35,North,10,3.0,-999.0,80,-99.99,,,-99.99,,2013-02-08 18:12:00,
2013-02-08 18:24:00,32.0,27.0,30.35,North,360,6.0,-999.0,80,-99.99,,,-99.99,,2013-02-08 18:24:00,
2013-02-08 18:43:00,32.0,27.0,30.35,North,360,6.0,-999.0,80,-99.99,,,-99.99,,2013-02-08 18:43:00,
2013-02-08 18:52:00,32.0,27.0,30.35,North,360,6.0,-999.0,80,-99.99,,,-99.99,,2013-02-08 18:52:00,
2013-02-08 19:42:00,34.0,27.0,30.33,NNW,340,6.0,-999.0,74,-99.99,,,-99.99,,2013-02-08 19:42:00,
2013-02-08 19:52:00,34.0,27.0,30.33,NNW,340,6.0,-999.0,74,-99.99,,,-99.99,,2013-02-08 19:52:00,
2013-02-08 20:02:00,34.0,27.0,30.33,NNW,340,6.0,-999.0,74,-99.99,,,-99.99,,2013-02-08 20:02:00,
2013-02-08 20:11:00,34.0,27.0,30.33,NNW,340,6.0,-999.0,74,-99.99,,,-99.99,,2013-02-08 20:11:00,
2013-02-08 20:21:00,34.0,28.0,30.33,North,0,0.0,-999.0,80,-99.99,,,-99.99,,2013-02-08 20:21:00,
2013-02-08 20:32:00,34.0,27.0,30.34,North,10,3.0,-999.0,74,-99.99,,,-99.99,,2013-02-08 20:32:00,
2013-02-08 20:42:00,34.0,28.0,30.34,North,10,3.0,-999.0,80,-99.99,,,-99.99,,2013-02-08 20:42:00,
2013-02-08 20:52:00,34.0,27.0,30.34,North,0,0.0,-999.0,74,-99.99,,,-99.99,,2013-02-08 20:52:00,
2013-02-08 21:02:00,34.0,27.0,30.34,NNW,340,3.0,-999.0,74,-99.99,,,-99.99,,2013-02-08 21:02:00,
2013-02-08 21:11:00,34.0,27.0,30.34,NNW,340,3.0,-999.0,74,-99.99,,,-99.99,,2013-02-08 21:11:00,
2013-02-08 21:21:00,34.0,27.0,30.35,East,80,3.0,-999.0,74,-99.99,,,-99.99,,2013-02-08 21:21:00,
2013-02-08 21:32:00,34.0,27.0,30.35,East,80,3.0,-999.0,74,-99.99,,,-99.99,,2013-02-08 21:32:00,
2013-02-08 21:42:00,34.0,27.0,30.35,North,0,0.0,-999.0,74,-99.99,,,-99.99,,2013-02-08 21:42:00,
2013-02-08 21:52:00,34.0,27.0,30.35,North,0,0.0,-999.0,74,-99.99,,,-99.99,,2013-02-08 21:52:00,
2013-02-08 22:01:00,34.0,28.0,30.36,WNW,290,5.0,-999.0,80,-99.99,,,-99.99,,2013-02-08 22:01:00,
2013-02-08 22:11:00,34.0,28.0,30.36,WNW,290,5.0,-999.0,80,-99.99,,,-99.99,,2013-02-08 22:11:00,
2013-02-08 22:21:00,34.0,28.0,30.37,West,260,3.0,-999.0,80,-99.99,,,-99.99,,2013-02-08 22:21:00,
2013-02-08 22:32:00,34.0,28.0,30.37,West,280,5.0,-999.0,80,-99.99,,,-99.99,,2013-02-08 22:32:00,
2013-02-08 22:42:00,34.0,28.0,30.38,West,270,5.0,-999.0,80,-99.99,,,-99.99,,2013-02-08 22:42:00,
2013-02-08 22:52:00,34.0,28.0,30.36,WSW,240,3.0,-999.0,80,-99.99,,,-99.99,,2013-02-08 22:52:00,
2013-02-08 23:01:00,34.0,28.0,30.36,WSW,240,3.0,-999.0,80,-99.99,,,-99.99,,2013-02-08 23:01:00,
2013-02-08 23:11:00,34.0,28.0,30.36,WSW,240,3.0,-999.0,80,-99.99,,,-99.99,,2013-02-08 23:11:00,
2013-02-08 23:21:00,32.0,27.0,30.34,North,0,0.0,-999.0,80,-99.99,,,-99.99,,2013-02-08 23:21:00,
2013-02-08 23:32:00,32.0,27.0,30.33,North,0,0.0,-999.0,80,-99.99,,,-99.99,,2013-02-08 23:32:00,
2013-02-08 23:42:00,32.0,27.0,30.33,North,0,0.0,-999.0,80,-99.99,,,-99.99,,2013-02-08 23:42:00,
2013-02-08 23:52:00,32.0,27.0,30.34,North,0,0.0,-999.0,80,-99.99,,,-99.99,,2013-02-08 23:52:00,